When you browse on this site, cookies collect data to enhance your experience and personalize the content and advertising you see.
Visit our Privacy Policy to learn more. By continuing to use the site, you agree to this use of cookies and data.
  • In Latvia
  • List of Countries
  • For 7 days
  • Water Temperature
  • Satellite Maps
  • Weather Map
  • Weather Widgets
  • user-avatar
    Login

    Hourly Weather Yerevan

    Today, 20 June, Thursday

    Time Temperature Precipitation Wind Pressure Humidity
    00:00 +21°C° 0.5 mm 0 mps 688 mmHg 70%
    01:00 +21°C° 0.4 mm 0 mps 688 mmHg 70%
    02:00 +20°C° 0.4 mm 0 mps 688 mmHg 71%
    03:00 +22°C° 0 mm 1 mps 687 mmHg 70%
    04:00 +20°C° 0.2 mm 0 mps 688 mmHg 68%
    05:00 +21°C° 0.2 mm 0 mps 688 mmHg 65%
    06:00 +21°C° 0.2 mm 0 mps 688 mmHg 63%
    07:00 +23°C° 0.1 mm 0 mps 688 mmHg 58%
    08:00 +26°C° 0.1 mm 1 mps 687 mmHg 52%
    09:00 +27°C° 0 mm 1 mps 687 mmHg 48%
    10:00 +29°C° 0.1 mm 1 mps 687 mmHg 43%
    11:00 +30°C° 0.1 mm 2 mps 687 mmHg 38%
    12:00 +32°C° 0.1 mm 2 mps 687 mmHg 34%
    13:00 +33°C° 0 mm 3 mps 687 mmHg 30%
    14:00 +34°C° 0 mm 3 mps 687 mmHg 27%
    15:00 +35°C° 0 mm 3 mps 687 mmHg 24%
    16:00 +34°C° 0 mm 3 mps 687 mmHg 26%
    17:00 +34°C° 0 mm 3 mps 687 mmHg 29%
    18:00 +33°C° 0 mm 4 mps 687 mmHg 31%
    19:00 +29°C° 0.5 mm 3 mps 687 mmHg 41%
    20:00 +27°C° 0.5 mm 3 mps 687 mmHg 51%
    21:00 +24°C° 0.5 mm 3 mps 687 mmHg 61%
    22:00 +22°C° 0.3 mm 3 mps 687 mmHg 65%
    23:00 +21°C° 0.3 mm 3 mps 687 mmHg 70%

    Tomorrow, 21 June, Friday

    Time Temperature Precipitation Wind Pressure Humidity
    00:00 +20°C° 0.3 mm 2 mps 687 mmHg 75%
    01:00 +20°C° 0.5 mm 2 mps 686 mmHg 76%
    02:00 +20°C° 0.5 mm 2 mps 686 mmHg 77%
    03:00 +20°C° 0.5 mm 1 mps 686 mmHg 79%
    04:00 +21°C° 0.4 mm 1 mps 686 mmHg 76%
    05:00 +21°C° 0.4 mm 1 mps 686 mmHg 74%
    06:00 +20°C° 0.4 mm 0 mps 686 mmHg 72%
    07:00 +23°C° 0.2 mm 1 mps 686 mmHg 66%
    08:00 +25°C° 0.2 mm 1 mps 687 mmHg 59%
    09:00 +26°C° 0.2 mm 1 mps 687 mmHg 53%
    10:00 +28°C° 0.2 mm 1 mps 687 mmHg 48%
    11:00 +29°C° 0.2 mm 1 mps 687 mmHg 43%
    12:00 +31°C° 0.2 mm 1 mps 687 mmHg 38%
    13:00 +31°C° 0.1 mm 1 mps 687 mmHg 35%
    14:00 +32°C° 0.1 mm 1 mps 687 mmHg 32%
    15:00 +33°C° 0.1 mm 1 mps 687 mmHg 30%
    16:00 +32°C° 0.1 mm 2 mps 687 mmHg 31%
    17:00 +32°C° 0.1 mm 2 mps 687 mmHg 33%
    18:00 +32°C° 0.1 mm 2 mps 688 mmHg 35%
    19:00 +29°C° 0.4 mm 2 mps 688 mmHg 43%
    20:00 +27°C° 0.4 mm 2 mps 688 mmHg 51%
    21:00 +24°C° 0.4 mm 2 mps 688 mmHg 59%
    22:00 +24°C° 0.2 mm 1 mps 688 mmHg 61%
    23:00 +23°C° 0.2 mm 1 mps 688 mmHg 63%

    Day after tomorrow, 22 June, Saturday

    Time Temperature Precipitation Wind Pressure Humidity
    00:00 +22°C° 0.2 mm 1 mps 688 mmHg 65%
    01:00 +22°C° 0 mm 1 mps 688 mmHg 66%
    02:00 +22°C° 0 mm 1 mps 688 mmHg 67%
    03:00 +21°C° 0 mm 1 mps 688 mmHg 68%
    04:00 +22°C° 0 mm 1 mps 688 mmHg 66%
    05:00 +23°C° 0 mm 1 mps 688 mmHg 64%
    06:00 +23°C° 0 mm 1 mps 689 mmHg 62%
    07:00 +25°C° 0 mm 1 mps 689 mmHg 57%
    08:00 +26°C° 0 mm 1 mps 689 mmHg 51%
    09:00 +28°C° 0 mm 1 mps 690 mmHg 46%
    10:00 +29°C° 0.1 mm 1 mps 690 mmHg 42%
    11:00 +31°C° 0.1 mm 2 mps 690 mmHg 38%
    12:00 +32°C° 0.1 mm 2 mps 690 mmHg 34%
    13:00 +34°C° 0 mm 2 mps 690 mmHg 32%
    14:00 +35°C° 0 mm 2 mps 690 mmHg 29%
    15:00 +35°C° 0 mm 2 mps 690 mmHg 27%
    16:00 +35°C° 0 mm 2 mps 690 mmHg 28%
    17:00 +35°C° 0 mm 3 mps 690 mmHg 30%
    18:00 +34°C° 0 mm 3 mps 690 mmHg 31%
    19:00 +31°C° 0.1 mm 3 mps 690 mmHg 36%
    20:00 +29°C° 0.1 mm 3 mps 690 mmHg 41%
    21:00 +27°C° 0.1 mm 3 mps 690 mmHg 46%
    22:00 +26°C° 0.4 mm 2 mps 690 mmHg 52%
    23:00 +25°C° 0.4 mm 2 mps 690 mmHg 57%

    23 June, Sunday

    Time Temperature Precipitation Wind Pressure Humidity
    00:00 +24°C° 0.4 mm 1 mps 690 mmHg 63%
    01:00 +23°C° 0.1 mm 1 mps 690 mmHg 64%
    02:00 +23°C° 0.1 mm 1 mps 690 mmHg 65%
    03:00 +22°C° 0.1 mm 1 mps 690 mmHg 67%
    04:00 +23°C° 0 mm 1 mps 690 mmHg 65%
    05:00 +24°C° 0 mm 1 mps 690 mmHg 63%
    06:00 +24°C° 0 mm 1 mps 690 mmHg 61%
    07:00 +26°C° 0 mm 1 mps 691 mmHg 55%
    08:00 +28°C° 0 mm 1 mps 691 mmHg 49%
    09:00 +29°C° 0 mm 1 mps 691 mmHg 44%
    10:00 +31°C° 0 mm 1 mps 691 mmHg 40%
    11:00 +32°C° 0 mm 1 mps 691 mmHg 36%
    12:00 +35°C° 0 mm 2 mps 691 mmHg 32%
    13:00 +36°C° 0 mm 2 mps 691 mmHg 29%
    14:00 +37°C° 0 mm 2 mps 691 mmHg 27%
    15:00 +38°C° 0 mm 2 mps 691 mmHg 24%
    16:00 +37°C° 0 mm 2 mps 691 mmHg 26%
    17:00 +37°C° 0 mm 2 mps 690 mmHg 27%
    18:00 +37°C° 0 mm 2 mps 690 mmHg 28%
    19:00 +34°C° 0 mm 3 mps 690 mmHg 32%
    20:00 +31°C° 0 mm 3 mps 690 mmHg 37%
    21:00 +29°C° 0 mm 4 mps 690 mmHg 41%
    22:00 +28°C° 0.1 mm 3 mps 690 mmHg 44%
    23:00 +27°C° 0.1 mm 2 mps 690 mmHg 48%

    24 June, Monday

    Time Temperature Precipitation Wind Pressure Humidity
    00:00 +26°C° 0.1 mm 1 mps 690 mmHg 51%
    01:00 +25°C° 0 mm 1 mps 690 mmHg 54%
    02:00 +24°C° 0 mm 2 mps 690 mmHg 56%
    03:00 +24°C° 0 mm 2 mps 690 mmHg 59%
    04:00 +24°C° 0 mm 2 mps 690 mmHg 58%
    05:00 +25°C° 0 mm 2 mps 690 mmHg 57%
    06:00 +26°C° 0 mm 2 mps 690 mmHg 56%
    07:00 +27°C° 0 mm 2 mps 690 mmHg 50%
    08:00 +29°C° 0 mm 1 mps 690 mmHg 45%
    09:00 +31°C° 0 mm 1 mps 691 mmHg 39%
    10:00 +33°C° 0 mm 1 mps 691 mmHg 36%
    11:00 +34°C° 0 mm 1 mps 691 mmHg 32%
    12:00 +36°C° 0 mm 1 mps 691 mmHg 29%
    13:00 +36°C° 0 mm 1 mps 690 mmHg 27%
    14:00 +37°C° 0 mm 1 mps 690 mmHg 25%
    15:00 +39°C° 0 mm 1 mps 690 mmHg 23%
    16:00 +38°C° 0 mm 2 mps 690 mmHg 25%
    17:00 +38°C° 0 mm 2 mps 690 mmHg 27%
    18:00 +37°C° 0 mm 3 mps 690 mmHg 28%
    19:00 +34°C° 0.4 mm 3 mps 690 mmHg 37%
    20:00 +30°C° 0.4 mm 4 mps 690 mmHg 45%
    21:00 +27°C° 0.4 mm 4 mps 690 mmHg 54%
    22:00 +26°C° 0.1 mm 3 mps 690 mmHg 56%
    23:00 +26°C° 0.1 mm 2 mps 690 mmHg 58%

    25 June, Tuesday

    Time Temperature Precipitation Wind Pressure Humidity
    00:00 +25°C° 0.1 mm 1 mps 690 mmHg 61%
    01:00 +25°C° 0 mm 2 mps 690 mmHg 62%
    02:00 +24°C° 0 mm 2 mps 690 mmHg 62%
    03:00 +24°C° 0 mm 2 mps 690 mmHg 63%
    04:00 +24°C° 0 mm 2 mps 690 mmHg 61%
    05:00 +25°C° 0 mm 2 mps 690 mmHg 59%
    06:00 +26°C° 0 mm 2 mps 690 mmHg 57%
    07:00 +27°C° 0 mm 2 mps 691 mmHg 51%
    08:00 +29°C° 0 mm 2 mps 691 mmHg 45%
    09:00 +31°C° 0 mm 1 mps 691 mmHg 39%
    10:00 +33°C° 0 mm 1 mps 691 mmHg 36%
    11:00 +35°C° 0 mm 1 mps 691 mmHg 32%
    12:00 +36°C° 0 mm 1 mps 691 mmHg 29%
    13:00 +37°C° 0 mm 1 mps 691 mmHg 26%
    14:00 +39°C° 0 mm 1 mps 691 mmHg 24%
    15:00 +40°C° 0 mm 1 mps 691 mmHg 21%
    16:00 +39°C° 0 mm 2 mps 691 mmHg 24%
    17:00 +38°C° 0 mm 3 mps 691 mmHg 26%
    18:00 +38°C° 0 mm 4 mps 690 mmHg 29%
    19:00 +35°C° 0 mm 4 mps 690 mmHg 33%
    20:00 +33°C° 0 mm 3 mps 691 mmHg 38%
    21:00 +30°C° 0 mm 3 mps 691 mmHg 42%
    22:00 +29°C° 0 mm 3 mps 690 mmHg 45%
    23:00 +28°C° 0 mm 2 mps 690 mmHg 47%
    Show more